This demonstration page uses our WeatherBlox Daily Observations layout. Learn more.

Left ArrowRight Arrow

38.83388, -104.82136

Hourly Observations for April 21, 2017

Temp ( °F °C ) Dew Point ( °F °C ) Humidity (%) Winds ( mph kmh ) Pressure ( in mb ) Visibility ( mi km ) Precip ( " mm )
12:08 am 00:08 Cloudy with Light Rain 37 3 37 3 100 100 SSW 10 17 29.72 1006 7 11 0.00 0.00
12:53 am 00:53 Cloudy with Rain 37 3 37 3 100 100 S 9 15 29.71 1006 5 8 0.00 0.00
12:58 am 00:58 Mostly Cloudy with Rain 38 3.1 37 2.6 97 97 SSE 10 17 29.69 1005 5 8 0.08 2.03
1:13 am 01:13 Mostly Cloudy with Rain/Snow 36 2 36 2 100 100 SSE 15 24 29.71 1006 1 2 0.00 0.00
1:28 am 01:28 Mostly Cloudy with Rain/Snow 36 2 36 2 100 100 S 13 20 29.71 1006 1 2 0.00 0.00
1:43 am 01:43 Mostly Cloudy with Rain/Snow 36 2 36 2 100 100 S 13 20 29.70 1006 1 1 0.00 0.00
1:58 am 01:58 Mostly Cloudy with Light Rain/Snow 35 1.7 35 1.6 99 99 S 16 26 29.66 1004 3 4 0.24 6.10
2:38 am 02:38 Cloudy with Light Rain/Snow 36 2 36 2 100 100 SSW 20 31 29.64 1004 7 11 0.00 0.00
2:58 am 02:58 Cloudy with Light Rain 36 2.1 35 1.4 95 95 S 10 17 29.63 1003 5 8 0.06 1.52
3:38 am 03:38 Cloudy with Light Snow 36 2 34 1 93 93 SSW 5 7 29.66 1004 3 4 0.00 0.00
3:43 am 03:43 Cloudy with Light Snow 34 1 34 1 100 100 SSW 3 6 29.68 1005 3 4 0.00 0.00
3:58 am 03:58 Cloudy with Light Snow 33 0.5 32 0.2 98 98 SE 6 9 29.65 1004 2 3 0.17 4.32
4:03 am 04:03 Mostly Cloudy with Light Snow 32 0 32 0 100 100 S 9 15 29.65 1004 3 5 0.00 0.00
4:08 am 04:08 Mostly Cloudy with Light Snow 32 0 32 0 100 100 S 13 20 29.64 1004 3 5 0.00 0.00
4:38 am 04:38 Cloudy with Light Snow 34 1 34 1 100 100 S 13 20 29.64 1004 9 14 0.00 0.00
4:43 am 04:43 Cloudy with Light Rain 34 1 34 1 100 100 S 14 22 29.63 1004 10 16 0.00 0.00
4:49 am 04:49 Cloudy 34 1 34 1 100 100 SW 15 24 29.64 1004 10 16 0.00 0.00
4:54 am 04:54 Mostly Cloudy 36 2 34 1 93 93 SW 10 17 29.64 1004 10 16 0.00 0.00
4:58 am 04:58 Mostly Cloudy 35 1.8 34 0.9 94 94 SW 13 20 29.64 1004 10 16 0.03 0.76
5:13 am 05:13 Mostly Cloudy 36 2 34 1 93 93 SW 14 22 29.64 1004 10 16 0.00 0.00
5:23 am 05:23 Mostly Cloudy 36 2 34 1 93 93 SW 21 33 29.63 1003 10 16 0.00 0.00
5:28 am 05:28 Mostly Cloudy 37 3 34 1 87 87 SW 22 35 29.62 1003 10 16 0.00 0.00
5:43 am 05:43 Mostly Cloudy 36 2 34 1 93 93 W 5 7 29.65 1004 10 16 0.00 0.00
5:48 am 05:48 Mostly Cloudy 36 2 34 1 93 93 NNW 5 7 29.63 1003 10 16 0.00 0.00
5:58 am 05:58 Mostly Cloudy 35 1.6 34 1.1 97 97 WNW 5 7 29.63 1003 10 16 0.00 0.00
6:13 am 06:13 Mostly Cloudy with Mist and Fog 34 1 34 1 100 100 SSE 3 6 29.63 1003 4 6 0.00 0.00
6:18 am 06:18 Mostly Cloudy with Mist and Fog 34 1 34 1 100 100 Calm 29.64 1004 4 6 0.00 0.00
6:23 am 06:23 Mostly Cloudy 34 1 34 1 100 100 SSW 3 6 29.64 1004 10 16 0.00 0.00
6:53 am 06:53 Mostly Cloudy with Mist and Fog 36 2 36 2 100 100 NNE 5 7 29.64 1004 1 2 0.00 0.00
6:58 am 06:58 Mostly Cloudy with Mist and Fog 35 1.7 35 1.6 99 99 NNW 3 6 29.64 1004 7 11 0.00 0.00
7:13 am 07:13 Mostly Cloudy with Mist and Fog 36 2 34 1 93 93 Calm 29.64 1004 3 5 0.00 0.00
7:28 am 07:28 Mostly Cloudy with Fog 36 2 36 2 100 100 Calm 29.65 1004 3 5 0.00 0.00
7:43 am 07:43 Mostly Cloudy with Mist and Fog 36 2 36 2 100 100 S 5 7 29.65 1004 4 6 0.00 0.00
7:58 am 07:58 Mostly Cloudy 37 2.7 36 2.3 97 97 SSE 5 7 29.65 1004 10 16 0.00 0.00
8:03 am 08:03 Partly Cloudy 37 3 36 2 93 93 SE 6 9 29.64 1004 10 16 0.00 0.00
8:38 am 08:38 Mostly Cloudy 37 3 37 3 100 100 ESE 7 11 29.65 1004 10 16 0.00 0.00
8:58 am 08:58 Mostly Cloudy 39 3.7 37 2.9 95 95 SE 8 13 29.63 1004 10 16 0.00 0.00
9:03 am 09:03 Mostly Cloudy 39 4 36 2 87 87 SE 8 13 29.63 1004 10 16 0.00 0.00
9:33 am 09:33 Mostly Cloudy 41 5 37 3 87 87 ESE 7 11 29.64 1004 10 16 0.00 0.00
9:43 am 09:43 Partly Cloudy 41 5 37 3 87 87 ESE 9 15 29.64 1004 10 16 0.00 0.00
9:58 am 09:58 Partly Cloudy 43 5.9 38 3.4 84 84 ESE 8 13 29.62 1003 10 16 0.00 0.00
10:18 am 10:18 Mostly Cloudy 43 6 39 4 87 87 ESE 9 15 29.65 1004 10 16 0.00 0.00
10:58 am 10:58 Mostly Cloudy 45 7 37 2.9 75 75 SSE 8 13 29.64 1004 10 16 0.00 0.00
11:35 am 11:35 Cloudy with Light Rain 43 6 34 1 71 71 N 5 7 29.65 1004 10 16 0.00 0.00
11:58 am 11:58 Mostly Cloudy with Light Showers 42 5.5 37 2.8 83 83 Calm 29.65 1004 10 16 0.01 0.25
12:28 pm 12:28 Partly Cloudy with Light Showers 43 6 36 2 76 76 W 3 6 29.65 1004 10 16 0.00 0.00
12:31 pm 12:31 Partly Cloudy 43 6 36 2 76 76 Calm 29.65 1004 10 16 0.00 0.00
12:40 pm 12:40 Partly Cloudy with Thunderstorms 45 7 36 2 71 71 SE 6 9 29.65 1004 10 16 0.00 0.00
12:55 pm 12:55 Mostly Sunny 45 7 36 2 71 71 S 9 15 29.65 1004 10 16 0.00 0.00
12:58 pm 12:58 Mostly Sunny 46 7.5 37 2.8 72 72 S 9 15 29.63 1003 10 16 0.01 0.25
1:28 pm 13:28 Mostly Cloudy with Light Rain 45 7 32 0 61 61 Calm 29.66 1004 10 16 0.00 0.00
1:48 pm 13:48 Mostly Cloudy with Showers and Scattered Storms 41 5 36 2 81 81 NW 9 15 29.70 1006 10 16 0.00 0.00
1:58 pm 13:58 Mostly Cloudy with Light Showers 41 5.2 36 2.3 82 82 N 8 13 29.70 1006 10 16 0.02 0.51
2:18 pm 14:18 Cloudy with Light Showers 41 5 34 1 76 76 NW 13 20 29.71 1006 10 16 0.00 0.00
2:33 pm 14:33 Mostly Cloudy 41 5 36 2 81 81 N 14 22 29.69 1005 10 16 0.00 0.00
2:58 pm 14:58 Mostly Cloudy 43 5.9 35 1.6 74 74 N 23 37 29.70 1006 10 16 0.01 0.25
3:03 pm 15:03 Mostly Cloudy 39 4 36 2 87 87 NNW 17 28 29.72 1007 10 16 0.00 0.00
3:21 pm 15:21 Mostly Cloudy with Light Showers 39 4 36 2 87 87 N 16 26 29.71 1006 10 16 0.00 0.00
3:40 pm 15:40 Mostly Cloudy 41 5 36 2 81 81 N 17 28 29.71 1006 10 16 0.00 0.00
3:58 pm 15:58 Mostly Cloudy 40 4.7 34 1.1 78 78 N 20 31 29.72 1007 10 16 0.00 0.00
4:03 pm 16:03 Mostly Cloudy 41 5 34 1 76 76 N 20 31 29.72 1007 10 16 0.00 0.00
4:25 pm 16:25 Windy with Rain Showers Likely 41 5 32 0 70 70 N 20 31 29.73 1007 10 16 0.00 0.00
4:58 pm 16:58 Cloudy with Light Showers 40 4.5 32 0.2 74 74 NNW 12 19 29.75 1007 10 16 0.00 0.00
4:59 pm 16:59 Mostly Cloudy 39 4 32 0 75 75 NNW 18 30 29.75 1008 10 16 0.00 0.00
5:43 pm 17:43 Cloudy with Light Rain 39 4 32 0 75 75 N 22 35 29.77 1008 10 16 0.00 0.00
5:58 pm 17:58 Cloudy with Light Rain 38 3.5 32 0.2 79 79 NNW 15 24 29.77 1008 10 16 0.00 0.00
6:16 pm 18:16 Mostly Cloudy 39 4 32 0 75 75 NNW 12 19 29.79 1009 10 16 0.00 0.00
6:58 pm 18:58 Mostly Cloudy 38 3.2 31 -0.3 78 78 NNW 16 26 29.80 1009 10 16 0.00 0.00
7:43 pm 19:43 Mostly Cloudy 37 3 30 -1 75 75 NNW 16 26 29.80 1009 10 16 0.00 0.00
7:58 pm 19:58 Mostly Cloudy 37 2.9 30 -1 76 76 NW 16 26 29.81 1009 10 16 0.00 0.00
8:28 pm 20:28 Mostly Cloudy 37 3 30 -1 75 75 NNW 13 20 29.83 1010 10 16 0.00 0.00
8:58 pm 20:58 Mostly Cloudy 37 2.8 30 -0.9 77 77 N 16 26 29.85 1011 10 16 0.00 0.00
9:13 pm 21:13 Mostly Cloudy 37 3 30 -1 75 75 N 14 22 29.84 1011 10 16 0.00 0.00
9:48 pm 21:48 Mostly Cloudy 36 2 30 -1 81 81 NNW 13 20 29.86 1011 10 16 0.00 0.00
9:58 pm 21:58 Mostly Cloudy 36 2 30 -1.1 80 80 N 14 22 29.86 1011 10 16 0.00 0.00
10:29 pm 22:29 Cloudy with Light Rain 36 2 30 -1 81 81 NNW 12 19 29.85 1011 10 16 0.00 0.00
10:58 pm 22:58 Cloudy with Light Rain/Snow 35 1.7 31 -0.8 84 84 NNW 12 19 29.87 1012 6 10 0.00 0.00
11:48 pm 23:48 Cloudy with Light Snow 34 1 32 0 93 93 N 12 19 29.89 1012 2 4 0.00 0.00
11:58 pm 23:58 Cloudy with Light Snow 34 1.2 31 -0.4 89 89 NNW 12 19 29.89 1012 3 4 0.00 0.00

Powered by AerisWeather